Location: Unspecified
(0.0000°N, 0.0000°E)
Time: 00:03:15
(UTC+00:00)

LightSail 2 - Pass Details

Date: 23 February 2020
Orbit: 698 x 724 km, 24.0° (Epoch: 26 February)

Event Time Altitude Azimuth Distance (km) Brightness Sun altitude
Rises 20:36:45 0° 239° (WSW) 3,064 9.3 -35.2°
Reaches altitude 10° 20:39:12 10° 235° (SW) 2,145 8.3 -35.8°
Enters shadow 20:40:52 21° 231° (SW) 1,542 7.3 -36.3°
